User: anonymous   Login
Location: Unspecified
(0.0000°N, 0.0000°E)
Time: 09:08:11
(UTC+00:00)
Language:

SWAS - Orbit

View from above orbital plane
View from above orbital plane
View from above satellite
View from above satellite

Ground track
Ground track

The orbit data is extracted from the following two-line orbital elements,

1 25560U 98071A   18018.58320992 +.00000168 +00000-0 +24540-4 0  9993
2 25560 069.8991 079.3665 0010831 237.7715 122.2392 14.93528260037486
Epoch (UTC): 18 January 2018 13:59:49
Eccentricity: 0.0010831
inclination: 69.8991°
perigee height: 579 km
apogee height: 594 km
right ascension of ascending node: 79.3665°
argument of perigee: 237.7715°
revolutions per day: 14.93528260
mean anomaly at epoch: 122.2392°
orbit number at epoch: 3748

The dashed part of the orbit path shows where the satellite is in the earth's shadow,  

DLR